Weather History for Wheaton NDB, MN

Change the Weather History Date:

Monday, November 11, 2013

  Actual Average Record
Temperature  
Mean Temperature 16 °F -  
Max Temperature 21 °F 39 °F 72 °F (1954)
Min Temperature 12 °F 22 °F -2 °F (1986)
Degree Days  
Heating Degree Days 48    
Moisture  
Dew Point 10 °F    
Average Humidity 69    
Maximum Humidity 85    
Minimum Humidity 58    
Precipitation  
Precipitation 0.00 in - - ()
Sea Level Pressure  
Sea Level Pressure 30.57 in    
Wind  
Wind Speed 17 mph (NNW)    
Max Wind Speed 23 mph    
Max Gust Speed 30 mph    
Visibility 10 miles    
Events Snow    
Averages and records for this station are not official NWS values.
T = Trace of Precipitation, MM = Missing Value Source: NWS Daily Summary

Daily Weather History Graph

Daily Weather History Graph

Search for Another Location

Airport:

Trip Planner

Search our weather history database for the weather conditions in past years. The results will help you decide how hot, cold, wet, or windy it might be!

Date:

Astronomy

Nov. 11, 2013 Rise Set
Actual Time 7:20 AM CST 4:59 PM CST
Civil Twilight 6:48 AM CST 5:31 PM CST
Nautical Twilight 6:12 AM CST 6:06 PM CST
Astronomical Twilight 5:37 AM CST 6:41 PM CST
Moon 1:57 PM CST (11/11) 12:48 AM CST (11/11)
Length of Visible Light 10h 42m
Length of Day
9h 38m
Waxing Gibbous, 66% of the Moon is Illuminated
Nov 11
Waxing Gibbous
Nov 17
Full
Nov 25
Last Quarter
Dec 2
New
Dec 9
First Quarter

Hourly Weather History & Observations

Time (CST) Temp. Windchill Dew Point Humidity Pressure Visibility Wind Dir Wind Speed Gust Speed Precip Events Conditions
12:15 AM 21.2 °F 5.2 °F 14.0 °F 74% 30.33 in 10.0 mi NNW 21.9 mph 27.6 mph N/A   Mostly Cloudy
12:34 AM 21.2 °F 5.2 °F 12.2 °F 68% 30.33 in 10.0 mi NNW 21.9 mph 28.8 mph N/A   Overcast
12:55 AM 21.2 °F 4.9 °F 12.2 °F 68% 30.35 in 10.0 mi NNW 23.0 mph 28.8 mph N/A   Scattered Clouds
1:15 AM 21.2 °F 6.8 °F 12.2 °F 68% 30.36 in 10.0 mi North 17.3 mph 26.5 mph N/A   Overcast
1:35 AM 21.2 °F 6.4 °F 12.2 °F 68% 30.36 in 10.0 mi North 18.4 mph 24.2 mph N/A   Mostly Cloudy
1:55 AM 21.2 °F 7.3 °F 12.2 °F 68% 30.37 in 10.0 mi NNW 16.1 mph 25.3 mph N/A   Scattered Clouds
2:14 AM 19.4 °F 3.6 °F 10.4 °F 68% 30.37 in 10.0 mi NNW 19.6 mph 29.9 mph N/A   Mostly Cloudy
2:35 AM 19.4 °F 2.8 °F 10.4 °F 68% 30.39 in 10.0 mi NNW 21.9 mph 28.8 mph N/A   Mostly Cloudy
2:55 AM 19.4 °F 4.1 °F 10.4 °F 68% 30.40 in 10.0 mi NNW 18.4 mph 26.5 mph N/A   Scattered Clouds
3:14 AM 19.4 °F 2.8 °F 10.4 °F 68% 30.40 in 10.0 mi North 21.9 mph 27.6 mph N/A   Mostly Cloudy
3:35 AM 19.4 °F 3.6 °F 10.4 °F 68% 30.40 in 10.0 mi NNW 19.6 mph 27.6 mph N/A   Scattered Clouds
3:55 AM 19.4 °F 3.2 °F 10.4 °F 68% 30.41 in 10.0 mi North 20.7 mph 27.6 mph N/A   Scattered Clouds
4:14 AM 17.6 °F 2.2 °F 10.4 °F 73% 30.42 in 10.0 mi NNW 17.3 mph 25.3 mph N/A   Clear
4:34 AM 17.6 °F 0.9 °F 10.4 °F 73% 30.43 in 10.0 mi NNW 20.7 mph 26.5 mph N/A   Clear
4:55 AM 17.6 °F 3.2 °F 8.6 °F 68% 30.44 in 10.0 mi North 15.0 mph 27.6 mph N/A   Scattered Clouds
5:14 AM 17.6 °F 1.3 °F 8.6 °F 68% 30.45 in 10.0 mi North 19.6 mph 23.0 mph N/A   Scattered Clouds
5:34 AM 17.6 °F 2.2 °F 10.4 °F 73% 30.46 in 10.0 mi North 17.3 mph 24.2 mph N/A   Clear
5:54 AM 17.6 °F 2.2 °F 10.4 °F 73% 30.47 in 10.0 mi NNW 17.3 mph 23.0 mph N/A   Scattered Clouds
6:14 AM 17.6 °F 2.2 °F 10.4 °F 73% 30.48 in 10.0 mi North 17.3 mph - N/A   Scattered Clouds
6:34 AM 17.6 °F 3.2 °F 8.6 °F 68% 30.50 in 10.0 mi North 15.0 mph 19.6 mph N/A   Scattered Clouds
6:54 AM 17.6 °F 3.7 °F 10.4 °F 73% 30.51 in 10.0 mi North 13.8 mph 20.7 mph N/A   Mostly Cloudy
7:14 AM 17.6 °F 3.2 °F 10.4 °F 73% 30.52 in 10.0 mi NNW 15.0 mph 23.0 mph N/A Snow Light Snow
7:34 AM 15.8 °F 0.3 °F 8.6 °F 73% 30.53 in 10.0 mi NNW 16.1 mph 24.2 mph N/A   Overcast
7:54 AM 15.8 °F 0.9 °F 8.6 °F 73% 30.55 in 10.0 mi North 15.0 mph - N/A Snow Light Snow
8:14 AM 15.8 °F 1.4 °F 8.6 °F 73% 30.57 in 10.0 mi NNW 13.8 mph - N/A   Mostly Cloudy
8:34 AM 15.8 °F 0.9 °F 8.6 °F 73% 30.57 in 10.0 mi North 15.0 mph 20.7 mph N/A   Mostly Cloudy
8:55 AM 17.6 °F 5.0 °F 10.4 °F 73% 30.59 in 10.0 mi North 11.5 mph 17.3 mph N/A   Overcast
9:14 AM 17.6 °F 2.2 °F 8.6 °F 68% 30.59 in 10.0 mi NNW 17.3 mph 21.9 mph N/A   Overcast
9:34 AM 17.6 °F 1.7 °F 10.4 °F 73% 30.60 in 7.0 mi NNW 18.4 mph - N/A Snow Light Snow
9:54 AM 17.6 °F 2.7 °F 10.4 °F 73% 30.61 in 7.0 mi North 16.1 mph 20.7 mph N/A Snow Light Snow
10:15 AM 17.6 °F 3.2 °F 8.6 °F 68% 30.61 in 10.0 mi NNW 15.0 mph 21.9 mph N/A   Mostly Cloudy
10:34 AM 17.6 °F 1.7 °F 8.6 °F 68% 30.62 in 10.0 mi NNW 18.4 mph 23.0 mph N/A   Overcast
10:54 AM 17.6 °F 2.2 °F 8.6 °F 68% 30.63 in 10.0 mi North 17.3 mph 21.9 mph N/A   Mostly Cloudy
11:14 AM 17.6 °F 2.7 °F 8.6 °F 68% 30.64 in 10.0 mi North 16.1 mph - N/A   Overcast
11:35 AM 19.4 °F 4.5 °F 8.6 °F 63% 30.64 in 10.0 mi NNW 17.3 mph 25.3 mph N/A   Overcast
11:55 AM 19.4 °F 4.5 °F 8.6 °F 63% 30.64 in 10.0 mi NNW 17.3 mph 23.0 mph N/A   Overcast
12:15 PM 19.4 °F 6.0 °F 8.6 °F 63% 30.63 in 10.0 mi NNW 13.8 mph 24.2 mph N/A   Overcast
12:34 PM 19.4 °F 5.5 °F 8.6 °F 63% 30.63 in 10.0 mi NW 15.0 mph 23.0 mph N/A   Overcast
12:55 PM 19.4 °F 4.5 °F 10.4 °F 68% 30.63 in 10.0 mi NNW 17.3 mph 21.9 mph N/A   Overcast
1:15 PM 19.4 °F 4.5 °F 10.4 °F 68% 30.64 in 10.0 mi NW 17.3 mph 23.0 mph N/A   Overcast
1:35 PM 19.4 °F 6.0 °F 10.4 °F 68% 30.65 in 10.0 mi NW 13.8 mph 20.7 mph N/A   Overcast
1:55 PM 19.4 °F 6.0 °F 8.6 °F 63% 30.65 in 10.0 mi NNW 13.8 mph 23.0 mph N/A   Mostly Cloudy
2:15 PM 19.4 °F 6.0 °F 10.4 °F 68% 30.66 in 10.0 mi NNW 13.8 mph 20.7 mph N/A   Mostly Cloudy
2:34 PM 19.4 °F 6.0 °F 8.6 °F 63% 30.66 in 10.0 mi NNW 13.8 mph 24.2 mph N/A   Mostly Cloudy
2:54 PM 19.4 °F 6.6 °F 8.6 °F 63% 30.66 in 10.0 mi NW 12.7 mph - N/A   Mostly Cloudy
3:14 PM 21.2 °F 8.3 °F 8.6 °F 58% 30.66 in 10.0 mi North 13.8 mph 19.6 mph N/A   Mostly Cloudy
3:34 PM 19.4 °F 5.5 °F 8.6 °F 63% 30.67 in 10.0 mi NNW 15.0 mph 20.7 mph N/A   Mostly Cloudy
3:54 PM 19.4 °F 6.6 °F 8.6 °F 63% 30.68 in 10.0 mi NNW 12.7 mph 17.3 mph N/A   Mostly Cloudy
4:15 PM 19.4 °F 7.9 °F 8.6 °F 63% 30.69 in 10.0 mi NNW 10.4 mph - N/A   Overcast
4:35 PM 19.4 °F 6.6 °F 8.6 °F 63% 30.69 in 10.0 mi NNW 12.7 mph 19.6 mph N/A   Overcast
4:54 PM 17.6 °F 4.3 °F 8.6 °F 68% 30.70 in 10.0 mi NW 12.7 mph - N/A   Scattered Clouds
5:15 PM 17.6 °F 4.3 °F 8.6 °F 68% 30.70 in 10.0 mi NW 12.7 mph 17.3 mph N/A   Mostly Cloudy
5:34 PM 17.6 °F 6.4 °F 8.6 °F 68% 30.71 in 10.0 mi NNW 9.2 mph - N/A   Scattered Clouds
5:54 PM 17.6 °F 6.4 °F 8.6 °F 68% 30.72 in 10.0 mi NNW 9.2 mph - N/A   Scattered Clouds
6:15 PM 15.8 °F 6.1 °F 8.6 °F 73% 30.73 in 10.0 mi NNW 6.9 mph - N/A   Clear
6:35 PM 15.8 °F 6.1 °F 8.6 °F 73% 30.74 in 10.0 mi NW 6.9 mph - N/A   Clear
6:54 PM 14.0 °F 3.9 °F 8.6 °F 79% 30.74 in 10.0 mi NNW 6.9 mph - N/A   Clear
7:15 PM 12.2 °F 2.9 °F 8.6 °F 85% 30.75 in 10.0 mi NNW 5.8 mph - N/A   Clear
7:34 PM 12.2 °F 4.3 °F 8.6 °F 85% 30.75 in 10.0 mi NW 4.6 mph - N/A   Clear
7:44 PM 12.2 °F 2.9 °F 8.6 °F 85% 30.76 in 10.0 mi NW 5.8 mph - N/A   Clear